Weather History for Kansas City International, MO

Change the Weather History Date:

Thursday, October 3, 2013

  Actual Average Record
Temperature  
Mean Temperature 73 °F 61 °F  
Max Temperature 84 °F 72 °F 95 °F (2006)
Min Temperature 62 °F 50 °F 31 °F (1987)
Degree Days  
Heating Degree Days 0 6  
Month to date heating degree days 0 17  
Since 1 July heating degree days 19 84  
Cooling Degree Days 8 2  
Month to date cooling degree days 19 6  
Year to date cooling degree days 1336 1338  
Growing Degree Days 23 (Base 50)    
Moisture  
Dew Point 65 °F    
Average Humidity 78    
Maximum Humidity 93    
Minimum Humidity 62    
Precipitation  
Precipitation 0.65 in 0.13 in 1.84 in (1942)
Month to date precipitation 0.65 0.38  
Year to date precipitation 28.16 32.40  
Snow  
Snow 0.00 in 0.00 in 0.00 in ()
Month to date snowfall 0.0 0.0  
Since 1 July snowfall 0.0 0.0  
Since 1 September snowfall 0.0 0.0  
Snow Depth 0.00 in    
Sea Level Pressure  
Sea Level Pressure 29.82 in    
Wind  
Wind Speed 14 mph (SSE)    
Max Wind Speed 23 mph    
Max Gust Speed 28 mph    
Visibility 9 miles    
Events Rain , Thunderstorm    
T = Trace of Precipitation, MM = Missing Value Source: NWS Daily Summary

Daily Weather History Graph

Daily Weather History Graph

Search for Another Location

Airport:

Trip Planner

Search our weather history database for the weather conditions in past years. The results will help you decide how hot, cold, wet, or windy it might be!

Date:

Astronomy

Oct. 03, 2013 Rise Set
Actual Time 7:17 AM CDT 6:57 PM CDT
Civil Twilight 6:50 AM CDT 7:24 PM CDT
Nautical Twilight 6:19 AM CDT 7:55 PM CDT
Astronomical Twilight 5:48 AM CDT 8:26 PM CDT
Moon 5:51 AM CDT (10/3) 6:06 PM CDT (10/3)
Length of Visible Light 12h 34m
Length of Day
11h 40m
Waning Crescent, 2% of the Moon is Illuminated
Oct 3
Waning Crescent
Oct 4
New
Oct 11
First Quarter
Oct 18
Full
Oct 26
Last Quarter

Hourly Weather History & Observations

Time (CDT) Temp. Heat Index Dew Point Humidity Pressure Visibility Wind Dir Wind Speed Gust Speed Precip Events Conditions
12:53 AM 70.0 °F - 66.0 °F 87% 29.86 in 10.0 mi SSE 8.1 mph - N/A   Mostly Cloudy
1:53 AM 70.0 °F - 66.0 °F 87% 29.84 in 10.0 mi SSE 12.7 mph - N/A   Mostly Cloudy
2:53 AM 70.0 °F - 64.9 °F 84% 29.83 in 10.0 mi South 9.2 mph - N/A   Scattered Clouds
3:53 AM 71.1 °F - 64.9 °F 81% 29.83 in 10.0 mi South 11.5 mph - N/A   Mostly Cloudy
4:53 AM 71.1 °F - 64.9 °F 81% 29.82 in 10.0 mi South 11.5 mph - N/A   Mostly Cloudy
5:53 AM 71.1 °F - 64.9 °F 81% 29.83 in 10.0 mi SSW 13.8 mph - N/A   Overcast
6:53 AM 70.0 °F - 64.9 °F 84% 29.82 in 10.0 mi South 13.8 mph 21.9 mph N/A   Scattered Clouds
7:53 AM 71.1 °F - 66.0 °F 84% 29.83 in 10.0 mi South 12.7 mph - N/A   Mostly Cloudy
8:10 AM 71.6 °F - 66.2 °F 83% 29.86 in 9.0 mi South 12.7 mph 20.7 mph N/A   Mostly Cloudy
8:53 AM 72.0 °F - 66.9 °F 84% 29.85 in 9.0 mi SSW 12.7 mph - N/A   Overcast
9:32 AM 64.4 °F - 59.0 °F 83% 29.92 in 2.5 mi North 15.0 mph 23.0 mph 0.03 in Rain Light Rain
9:45 AM 62.6 °F - 59.0 °F 88% 29.92 in 3.0 mi North 12.7 mph - 0.20 in Rain , Thunderstorm Heavy Thunderstorms and Rain
9:53 AM 63.0 °F - 60.1 °F 90% 29.90 in 3.0 mi NNE 15.0 mph 23.0 mph 0.23 in Rain , Thunderstorm Thunderstorms and Rain
10:10 AM 62.6 °F - 60.8 °F 94% 29.92 in 2.0 mi North 13.8 mph - 0.11 in Rain , Thunderstorm Heavy Thunderstorms and Rain
10:12 AM 62.6 °F - 60.8 °F 94% 29.92 in 4.0 mi NNE 13.8 mph - 0.11 in Rain , Thunderstorm Rain
10:53 AM 63.0 °F - 60.1 °F 90% 29.90 in 3.0 mi NE 12.7 mph - 0.36 in Rain , Thunderstorm Light Thunderstorms and Rain
11:03 AM 62.6 °F - 60.8 °F 94% 29.91 in 6.0 mi ENE 15.0 mph - 0.03 in Rain , Thunderstorm Thunderstorms and Rain
11:28 AM 64.4 °F - 60.8 °F 88% 29.86 in 10.0 mi East 13.8 mph - 0.06 in Rain Light Rain
11:53 AM 66.9 °F - 63.0 °F 87% 29.83 in 10.0 mi ESE 13.8 mph - 0.06 in   Mostly Cloudy
12:53 PM 72.0 °F - 64.9 °F 78% 29.82 in 10.0 mi South 9.2 mph - N/A   Overcast
1:18 PM 71.6 °F - 64.4 °F 78% 29.83 in 10.0 mi SSE 11.5 mph - N/A   Overcast
1:47 PM 73.4 °F - 64.4 °F 73% 29.80 in 10.0 mi SSE 16.1 mph - N/A   Scattered Clouds
1:53 PM 75.0 °F - 66.0 °F 73% 29.77 in 10.0 mi SSE 13.8 mph - N/A   Scattered Clouds
2:53 PM 78.1 °F - 68.0 °F 71% 29.75 in 10.0 mi SSE 17.3 mph 24.2 mph N/A   Partly Cloudy
3:53 PM 82.9 °F 87.0 °F 70.0 °F 65% 29.72 in 10.0 mi South 17.3 mph 23.0 mph N/A   Partly Cloudy
4:53 PM 82.0 °F 84.9 °F 68.0 °F 62% 29.71 in 10.0 mi South 16.1 mph 26.5 mph N/A   Partly Cloudy
5:53 PM 81.0 °F 83.3 °F 66.9 °F 62% 29.71 in 10.0 mi South 16.1 mph 23.0 mph N/A   Partly Cloudy
6:53 PM 79.0 °F - 66.0 °F 64% 29.73 in 10.0 mi South 15.0 mph - N/A   Scattered Clouds
7:53 PM 77.0 °F - 66.0 °F 69% 29.73 in 10.0 mi South 15.0 mph - N/A   Clear
8:53 PM 75.0 °F - 66.0 °F 73% 29.75 in 10.0 mi South 12.7 mph - N/A   Clear
9:53 PM 75.0 °F - 64.9 °F 71% 29.77 in 10.0 mi South 13.8 mph - N/A   Partly Cloudy
11:53 PM 75.0 °F - 64.9 °F 71% 29.78 in 10.0 mi South 18.4 mph 26.5 mph N/A   Mostly Cloudy